Location: Mercogliano
(40.9167°N, 14.7333°E)
Time: 04:11:53
(UTC+00:00)

Exosat Rocket - Pass Details

Date: 18 September 2020
Orbit: 761 x 2514 km, 72.3° (Epoch: 25 October)

Event Time Altitude Azimuth Distance (km) Brightness Sun altitude
Rises 18:56:14 0° 192° (SSW) 3,888 7.0 -21.4°
Reaches altitude 10° 18:59:08 10° 190° (S) 2,738 6.2 -21.9°
Maximum altitude 19:05:03 66° 109° (ESE) 902 3.5 -22.9°
Drops below altitude 10° 19:10:01 10° 28° (NNE) 2,309 5.9 -23.8°
Sets 19:12:17 0° 25° (NNE) 3,231 6.7 -24.2°
